EN

Hourly Weather Ladikovo

Today, 1 August, Sunday

Time Temperature Precipitation Wind Pressure Humidity
00:00 +18°C° 0 mm 2 mps 741 mmHg 75%
01:00 +18°C° 0 mm 3 mps 740 mmHg 77%
02:00 +18°C° 0 mm 3 mps 740 mmHg 80%
03:00 +18°C° 0.2 mm 3 mps 740 mmHg 84%
04:00 +18°C° 0.2 mm 3 mps 740 mmHg 89%
05:00 +17°C° 0.2 mm 3 mps 740 mmHg 93%
06:00 +18°C° 0.2 mm 4 mps 740 mmHg 91%
07:00 +19°C° 0.2 mm 4 mps 740 mmHg 89%
08:00 +20°C° 0.2 mm 4 mps 740 mmHg 87%
09:00 +22°C° 0.4 mm 4 mps 740 mmHg 79%
10:00 +23°C° 0.4 mm 5 mps 741 mmHg 71%
11:00 +26°C° 0.4 mm 5 mps 741 mmHg 63%
12:00 +27°C° 0 mm 5 mps 741 mmHg 55%
13:00 +28°C° 0 mm 5 mps 741 mmHg 47%
14:00 +28°C° 0 mm 5 mps 741 mmHg 39%
15:00 +28°C° 0 mm 4 mps 741 mmHg 41%
16:00 +28°C° 0 mm 4 mps 741 mmHg 43%
17:00 +27°C° 0 mm 4 mps 741 mmHg 45%
18:00 +25°C° 0 mm 3 mps 741 mmHg 51%
19:00 +23°C° 0 mm 2 mps 741 mmHg 57%
20:00 +21°C° 0 mm 1 mps 740 mmHg 64%
21:00 +21°C° 0 mm 1 mps 741 mmHg 63%
22:00 +21°C° 0 mm 1 mps 741 mmHg 63%
23:00 +21°C° 0 mm 1 mps 741 mmHg 62%

Tomorrow, 2 August, Monday

Time Temperature Precipitation Wind Pressure Humidity
00:00 +19°C° 0 mm 2 mps 740 mmHg 64%
01:00 +18°C° 0 mm 2 mps 740 mmHg 66%
02:00 +18°C° 0 mm 3 mps 740 mmHg 68%
03:00 +18°C° 0.1 mm 2 mps 740 mmHg 74%
04:00 +17°C° 0.1 mm 2 mps 739 mmHg 79%
05:00 +18°C° 0.1 mm 1 mps 739 mmHg 84%
06:00 +17°C° 0.5 mm 2 mps 739 mmHg 88%
07:00 +17°C° 0.5 mm 2 mps 738 mmHg 91%
08:00 +17°C° 0.5 mm 3 mps 738 mmHg 95%
09:00 +18°C° 0.3 mm 3 mps 738 mmHg 93%
10:00 +19°C° 0.3 mm 3 mps 737 mmHg 92%
11:00 +20°C° 0.3 mm 4 mps 737 mmHg 90%
12:00 +22°C° 0.3 mm 4 mps 737 mmHg 84%
13:00 +23°C° 0.3 mm 4 mps 737 mmHg 77%
14:00 +25°C° 0.3 mm 4 mps 736 mmHg 71%
15:00 +25°C° 1.1 mm 4 mps 736 mmHg 75%
16:00 +23°C° 1.1 mm 4 mps 736 mmHg 80%
17:00 +22°C° 1.1 mm 4 mps 736 mmHg 85%
18:00 +20°C° 0.4 mm 5 mps 736 mmHg 89%
19:00 +17°C° 0.4 mm 5 mps 737 mmHg 92%
20:00 +16°C° 0.4 mm 6 mps 737 mmHg 96%
21:00 +15°C° 0 mm 5 mps 738 mmHg 96%
22:00 +15°C° 0 mm 5 mps 738 mmHg 96%
23:00 +15°C° 0 mm 4 mps 739 mmHg 96%

Day after tomorrow, 3 August, Tuesday

Time Temperature Precipitation Wind Pressure Humidity
00:00 +15°C° 0 mm 4 mps 739 mmHg 95%
01:00 +15°C° 0 mm 4 mps 739 mmHg 95%
02:00 +14°C° 0 mm 4 mps 739 mmHg 94%
03:00 +14°C° 0 mm 4 mps 740 mmHg 94%
04:00 +14°C° 0 mm 4 mps 740 mmHg 95%
05:00 +14°C° 0 mm 4 mps 741 mmHg 95%
06:00 +15°C° 0 mm 4 mps 741 mmHg 89%
07:00 +15°C° 0 mm 4 mps 742 mmHg 83%
08:00 +16°C° 0 mm 5 mps 742 mmHg 77%
09:00 +17°C° 0.1 mm 5 mps 742 mmHg 71%
10:00 +20°C° 0.1 mm 5 mps 742 mmHg 64%
11:00 +21°C° 0.1 mm 5 mps 743 mmHg 57%
12:00 +21°C° 0.1 mm 5 mps 743 mmHg 55%
13:00 +22°C° 0.1 mm 5 mps 743 mmHg 52%
14:00 +22°C° 0.1 mm 5 mps 743 mmHg 50%
15:00 +22°C° 0.1 mm 5 mps 743 mmHg 54%
16:00 +21°C° 0.1 mm 5 mps 743 mmHg 58%
17:00 +21°C° 0.1 mm 4 mps 743 mmHg 62%
18:00 +19°C° 0.2 mm 4 mps 743 mmHg 70%
19:00 +18°C° 0.2 mm 3 mps 744 mmHg 79%
20:00 +16°C° 0.2 mm 3 mps 744 mmHg 87%
21:00 +14°C° 0 mm 3 mps 744 mmHg 89%
22:00 +14°C° 0 mm 3 mps 744 mmHg 91%
23:00 +13°C° 0 mm 3 mps 745 mmHg 93%

4 August, Wednesday

Time Temperature Precipitation Wind Pressure Humidity
00:00 +14°C° 0 mm 2 mps 745 mmHg 94%
01:00 +14°C° 0 mm 2 mps 745 mmHg 95%
02:00 +13°C° 0 mm 2 mps 745 mmHg 95%
03:00 +13°C° 0 mm 2 mps 745 mmHg 96%
04:00 +13°C° 0 mm 2 mps 746 mmHg 96%
05:00 +13°C° 0 mm 2 mps 746 mmHg 96%
06:00 +15°C° 0 mm 2 mps 746 mmHg 91%
07:00 +16°C° 0 mm 2 mps 747 mmHg 86%
08:00 +17°C° 0 mm 2 mps 747 mmHg 80%
09:00 +19°C° 0.1 mm 2 mps 747 mmHg 72%
10:00 +20°C° 0.1 mm 2 mps 747 mmHg 63%
11:00 +23°C° 0.1 mm 2 mps 747 mmHg 55%
12:00 +23°C° 0.1 mm 2 mps 747 mmHg 52%
13:00 +24°C° 0.1 mm 2 mps 747 mmHg 50%
14:00 +24°C° 0.1 mm 2 mps 747 mmHg 47%
15:00 +24°C° 0 mm 2 mps 747 mmHg 47%
16:00 +24°C° 0 mm 1 mps 747 mmHg 48%
17:00 +24°C° 0 mm 1 mps 747 mmHg 48%
18:00 +23°C° 0 mm 1 mps 747 mmHg 53%
19:00 +21°C° 0 mm 1 mps 747 mmHg 58%
20:00 +19°C° 0 mm 1 mps 747 mmHg 64%
21:00 +19°C° 0 mm 1 mps 747 mmHg 65%
22:00 +19°C° 0 mm 1 mps 747 mmHg 67%
23:00 +17°C° 0 mm 2 mps 747 mmHg 69%

5 August, Thursday

Time Temperature Precipitation Wind Pressure Humidity
00:00 +17°C° 0 mm 2 mps 747 mmHg 71%
01:00 +17°C° 0 mm 2 mps 747 mmHg 73%
02:00 +17°C° 0 mm 2 mps 746 mmHg 75%
03:00 +16°C° 0.1 mm 2 mps 746 mmHg 79%
04:00 +16°C° 0.1 mm 2 mps 746 mmHg 82%
05:00 +16°C° 0.1 mm 2 mps 746 mmHg 86%
06:00 +15°C° 0.7 mm 2 mps 746 mmHg 89%
07:00 +14°C° 0.7 mm 3 mps 746 mmHg 92%
08:00 +14°C° 0.7 mm 3 mps 746 mmHg 95%
09:00 +15°C° 0.2 mm 4 mps 745 mmHg 92%
10:00 +17°C° 0.2 mm 4 mps 745 mmHg 90%
11:00 +17°C° 0.2 mm 5 mps 745 mmHg 87%
12:00 +19°C° 0 mm 5 mps 744 mmHg 80%
13:00 +21°C° 0 mm 5 mps 744 mmHg 72%
14:00 +22°C° 0 mm 5 mps 743 mmHg 65%
15:00 +22°C° 0.5 mm 4 mps 743 mmHg 72%
16:00 +21°C° 0.5 mm 4 mps 743 mmHg 79%
17:00 +20°C° 0.5 mm 4 mps 742 mmHg 86%
18:00 +19°C° 1.7 mm 4 mps 742 mmHg 89%
19:00 +18°C° 1.7 mm 4 mps 742 mmHg 93%
20:00 +18°C° 1.7 mm 4 mps 741 mmHg 96%
21:00 +18°C° 0.4 mm 4 mps 741 mmHg 97%
22:00 +17°C° 0.4 mm 4 mps 741 mmHg 97%
23:00 +17°C° 0.4 mm 4 mps 740 mmHg 97%

6 August, Friday

Time Temperature Precipitation Wind Pressure Humidity
00:00 +17°C° 0.4 mm 4 mps 740 mmHg 97%
01:00 +17°C° 0.4 mm 4 mps 739 mmHg 97%
02:00 +17°C° 0.4 mm 4 mps 739 mmHg 97%
03:00 +17°C° 1 mm 4 mps 738 mmHg 97%
04:00 +17°C° 1 mm 5 mps 738 mmHg 97%
05:00 +17°C° 1 mm 5 mps 737 mmHg 97%
06:00 +17°C° 1.9 mm 5 mps 737 mmHg 96%
07:00 +19°C° 1.9 mm 6 mps 736 mmHg 95%
08:00 +18°C° 1.9 mm 7 mps 736 mmHg 94%
09:00 +20°C° 0.5 mm 7 mps 736 mmHg 93%
10:00 +20°C° 0.5 mm 7 mps 736 mmHg 91%
11:00 +21°C° 0.5 mm 7 mps 736 mmHg 89%
12:00 +20°C° 0.2 mm 6 mps 737 mmHg 87%
13:00 +20°C° 0.2 mm 6 mps 738 mmHg 85%
14:00 +19°C° 0.2 mm 5 mps 738 mmHg 83%
15:00 +20°C° 0 mm 5 mps 738 mmHg 79%
16:00 +20°C° 0 mm 4 mps 738 mmHg 75%
17:00 +21°C° 0 mm 4 mps 738 mmHg 70%
18:00 +20°C° 0 mm 4 mps 739 mmHg 76%
19:00 +18°C° 0 mm 3 mps 739 mmHg 81%
20:00 +17°C° 0 mm 3 mps 739 mmHg 86%
21:00 +17°C° 0 mm 3 mps 739 mmHg 87%
22:00 +16°C° 0 mm 3 mps 739 mmHg 89%
23:00 +14°C° 0 mm 3 mps 740 mmHg 90%
Show more